Date String (YYYY-MM-DD hh:mm:ss) UTC,Instrument flags,Ambient pressure (hPa),Sample flow (lpm),Bypass flow (lpm),Sample temperature (°C),Ambient temperature (°C),ASC tube jacket temperature (°C),LED temperature (°C),Box temperature (°C),Sample RH (%),Span deviation,Mass concentration (μg/m³),Mass concentration (μg/m³),Mass concentration (μg/m³)
DateTimeUTC,F1_M11,P_M11,Q1_M11,Q2_M11,T1_M11,T2_M11,T3_M11,T4_M11,T5_M11,U1_M11,ZSPAN_M11,X0_M11,X2_M11,X1_M11
2021-12-03 13:00:00,,0830.6,5.00,0.00,28.0,27.0,00.0,37.0,29.8,10.4,0000.0,0013.69,0004.43,0002.89
2021-12-03 13:01:00,,0830.6,4.99,0.00,28.0,27.0,00.0,37.0,29.8,10.4,0000.0,0014.31,0004.46,0002.89
2021-12-03 13:02:00,,0830.6,5.01,0.00,28.0,27.0,00.0,37.0,29.8,10.4,0000.0,0014.96,0004.48,0002.91
2021-12-03 13:03:00,,0830.6,4.99,0.00,28.0,27.0,00.0,37.0,29.8,10.6,0000.0,0015.33,0004.53,0002.95
2021-12-03 13:04:00,,0830.6,5.01,0.00,28.0,27.0,00.0,37.0,29.8,10.8,0000.0,0016.05,0004.53,0002.95
2021-12-03 13:05:00,,0830.7,5.00,0.00,28.0,27.0,00.0,36.9,29.7,10.9,0000.0,0016.43,0004.49,0002.95
2021-12-03 13:06:00,,0830.8,5.01,0.00,28.0,27.0,00.0,36.9,29.7,10.9,0000.0,0016.03,0004.41,0002.94
2021-12-03 13:07:00,,0830.8,4.98,0.00,28.0,26.9,00.0,36.9,29.8,10.9,0000.0,0015.03,0004.37,0002.95
2021-12-03 13:08:00,,0830.8,5.01,0.00,27.9,27.0,00.0,36.9,29.7,11.0,0000.0,0013.43,0004.33,0002.95
2021-12-03 13:09:00,,0830.8,4.99,0.00,27.9,26.9,00.0,36.9,29.7,11.0,0000.0,0013.18,0004.38,0002.96
2021-12-03 13:10:00,,0830.7,5.01,0.00,27.9,26.9,00.0,36.9,29.7,11.0,0000.0,0013.50,0004.39,0002.95
2021-12-03 13:11:00,,0830.8,4.98,0.00,27.9,26.9,00.0,36.9,29.7,11.1,0000.0,0013.70,0004.41,0002.94
2021-12-03 13:12:00,,0830.9,5.00,0.00,27.9,26.9,00.0,36.9,29.7,11.2,0000.0,0013.36,0004.43,0002.94
2021-12-03 13:13:00,,0831.0,5.01,0.00,27.9,26.9,00.0,36.9,29.7,11.2,0000.0,0013.71,0004.45,0002.95
2021-12-03 13:14:00,,0830.9,4.99,0.00,27.9,26.9,00.0,36.9,29.7,11.1,0000.0,0013.60,0004.48,0002.94
2021-12-03 13:15:00,,0830.9,5.00,0.00,27.9,26.9,00.0,36.9,29.7,11.4,0000.0,0013.94,0004.56,0002.94
2021-12-03 13:16:00,,0830.9,5.00,0.00,27.9,26.9,00.0,36.9,29.7,11.5,0000.0,0013.90,0004.58,0002.94
2021-12-03 13:17:00,,0831.0,5.00,0.00,27.9,26.9,00.0,36.9,29.7,11.5,0000.0,0013.84,0004.57,0002.93
2021-12-03 13:18:00,,0831.0,4.99,0.00,27.9,26.9,00.0,36.9,29.7,11.6,0000.0,0013.72,0004.57,0002.91
2021-12-03 13:19:00,,0831.0,5.01,0.00,27.9,26.9,00.0,36.9,29.7,11.7,0000.0,0013.64,0004.51,0002.88
2021-12-03 13:20:00,,0831.0,4.99,0.00,27.9,26.9,00.0,36.9,29.7,11.9,0000.0,0014.22,0004.45,0002.84
2021-12-03 13:21:00,,0831.1,5.00,0.00,27.9,26.9,00.0,36.9,29.6,11.8,0000.0,0014.12,0004.35,0002.80
2021-12-03 13:22:00,,0831.0,5.01,0.00,27.9,26.9,00.0,36.9,29.6,11.9,0000.0,0013.51,0004.27,0002.79
2021-12-03 13:23:00,,0831.0,5.00,0.00,27.8,26.8,00.0,36.9,29.6,11.9,0000.0,0013.28,0004.22,0002.76
2021-12-03 13:24:00,,0831.0,5.00,0.00,27.8,26.8,00.0,36.9,29.6,11.9,0000.0,0012.40,0004.19,0002.73
2021-12-03 13:25:00,,0831.0,4.99,0.00,27.8,26.8,00.0,36.8,29.6,12.1,0000.0,0011.82,0004.12,0002.70
2021-12-03 13:26:00,,0831.0,5.00,0.00,27.8,26.8,00.0,36.8,29.5,12.1,0000.0,0011.19,0004.03,0002.67
2021-12-03 13:27:00,,0831.1,4.99,0.00,27.8,26.8,00.0,36.8,29.5,12.3,0000.0,0011.71,0003.98,0002.65
2021-12-03 13:28:00,,0831.1,5.01,0.00,27.8,26.8,00.0,36.8,29.5,12.4,0000.0,0011.72,0003.99,0002.62
2021-12-03 13:29:00,,0831.1,4.99,0.00,27.8,26.8,00.0,36.8,29.5,12.5,0000.0,0011.63,0003.96,0002.60
2021-12-03 13:30:00,,0831.1,5.00,0.00,27.7,26.8,00.0,36.8,29.4,12.9,0000.0,0012.03,0003.95,0002.56
2021-12-03 13:31:00,,0831.2,5.00,0.00,27.7,26.7,00.0,36.8,29.4,13.1,0000.0,0012.60,0003.93,0002.52
2021-12-03 13:32:00,,0831.2,5.00,0.00,27.7,26.7,00.0,36.8,29.4,13.2,0000.0,0011.90,0003.91,0002.49
2021-12-03 13:33:00,,0831.2,5.00,0.00,27.7,26.7,00.0,36.8,29.3,13.4,0000.0,0011.73,0003.85,0002.41
2021-12-03 13:34:00,,0831.2,5.00,0.00,27.7,26.7,00.0,36.8,29.3,13.4,0000.0,0011.83,0003.76,0002.31
2021-12-03 13:35:00,,0831.2,4.99,0.00,27.7,26.7,00.0,36.7,29.4,13.6,0000.0,0012.19,0003.67,0002.22
2021-12-03 13:36:00,,0831.2,5.02,0.00,27.7,26.7,00.0,36.7,29.4,13.8,0000.0,0011.95,0003.55,0002.11
2021-12-03 13:37:00,,0831.2,5.00,0.00,27.6,26.7,00.0,36.7,29.3,13.8,0000.0,0011.67,0003.43,0002.01
2021-12-03 13:38:00,,0831.2,4.99,0.00,27.6,26.7,00.0,36.7,29.3,13.8,0000.0,0011.04,0003.40,0001.92
2021-12-03 13:39:00,,0831.2,5.01,0.00,27.6,26.7,00.0,36.7,29.3,13.8,0000.0,0010.73,0003.30,0001.86
2021-12-03 13:40:00,,0831.2,5.00,0.00,27.6,26.7,00.0,36.7,29.2,13.7,0000.0,0011.27,0003.23,0001.80
2021-12-03 13:41:00,,0831.2,5.02,0.00,27.6,26.6,00.0,36.7,29.3,13.6,0000.0,0011.13,0003.22,0001.76
2021-12-03 13:42:00,,0831.2,4.99,0.00,27.6,26.6,00.0,36.7,29.3,13.7,0000.0,0009.88,0003.19,0001.72
2021-12-03 13:43:00,,0831.2,5.00,0.00,27.6,26.6,00.0,36.6,29.2,13.7,0000.0,0010.17,0003.15,0001.68
2021-12-03 13:44:00,,0831.2,4.99,0.00,27.5,26.6,00.0,36.6,29.2,13.7,0000.0,0010.70,0003.17,0001.68
2021-12-03 13:45:00,,0831.2,5.00,0.00,27.5,26.6,00.0,36.6,29.2,13.5,0000.0,0010.87,0003.23,0001.69
2021-12-03 13:46:00,,0831.2,5.01,0.00,27.5,26.6,00.0,36.6,29.2,13.7,0000.0,0010.15,0003.23,0001.70
2021-12-03 13:47:00,,0831.2,4.99,0.00,27.5,26.6,00.0,36.6,29.2,13.8,0000.0,0010.81,0003.25,0001.71
2021-12-03 13:48:00,,0831.2,5.00,0.00,27.5,26.6,00.0,36.6,29.2,13.8,0000.0,0010.95,0003.26,0001.72
2021-12-03 13:49:00,,0831.2,5.00,0.00,27.5,26.6,00.0,36.6,29.2,13.9,0000.0,0010.79,0003.20,0001.72
2021-12-03 13:50:00,,0831.2,5.00,0.00,27.5,26.6,00.0,36.6,29.2,14.0,0000.0,0011.01,0003.18,0001.72
2021-12-03 13:51:00,,0831.2,4.98,0.00,27.5,26.5,00.0,36.5,29.2,14.0,0000.0,0010.59,0003.17,0001.70
2021-12-03 13:52:00,,0831.2,5.02,0.00,27.5,26.5,00.0,36.5,29.2,14.0,0000.0,0009.78,0003.10,0001.68
2021-12-03 13:53:00,,0831.2,4.99,0.00,27.5,26.5,00.0,36.5,29.2,14.0,0000.0,0009.71,0003.05,0001.65
2021-12-03 13:54:00,,0831.2,5.00,0.00,27.5,26.5,00.0,36.5,29.3,14.0,0000.0,0009.49,0003.04,0001.64
2021-12-03 13:55:00,,0831.3,5.00,0.00,27.5,26.5,00.0,36.5,29.3,13.9,0000.0,0008.76,0002.98,0001.64
2021-12-03 13:56:00,,0831.4,5.00,0.00,27.5,26.6,00.0,36.5,29.3,13.8,0000.0,0008.45,0002.97,0001.63
2021-12-03 13:57:00,,0831.4,5.00,0.00,27.5,26.5,00.0,36.5,29.3,13.9,0000.0,0008.45,0002.97,0001.62
2021-12-03 13:58:00,,0831.3,4.99,0.00,27.5,26.5,00.0,36.5,29.3,13.9,0000.0,0007.93,0002.93,0001.62
2021-12-03 13:59:00,,0831.4,5.00,0.00,27.5,26.5,00.0,36.5,29.3,13.9,0000.0,0007.57,0002.92,0001.61
